STARLINK-31862, 59786

Orbit data source: Space-Track

STARLINK-31862, 59786 is a payload satellite owned by SpaceX/Seattle (US) in LEO that was launched on Sat, 18 May 2024 UTC via an FALCON 9 launch vehicle from the Air Force Eastern Test Range (AFETR). Payload-class satellites include a variety of spacecraft equipped with specific instruments for various scientific and technological missions. These include communications satellites like Starlink; space stations such as the ISS; scientific satellites like the Hubble; Earth observation satellites from companies like Planet Labs, Umbra, and HawkEye 360; GPS; miniature CubeSats for education and research; and military/defense satellites.

Loading next visibility...
Identifier
59786, 2024-093E
Orbit
LEO
Last TLE update
10 hours ago
Origin
Manufacturer
SpaceX/Seattle
Mission
Operational spacecraft
Bus & Motor
STARLINK V2M, Unknown motor
Mass
730 kg wet, ~700 kg dry
Launch date (UTC)
2024-05-18 (1 year ago)
Launch vehicle
FALCON 9
Launch site
Air Force Eastern Test Range (AFETR)
Object type
Payload
Rocket body
Debris
Shape & HBR
Unknown
Radar Cross Section
Large (>1 m²)

Expand to show TLE details & history

TLE from 10 hours ago
0 STARLINK-31862
1 59786U 24093E   25194.07680872  .00000126  00000-0  14085-4 0  9993
2 59786  42.9998 121.7652 0000889 251.9622 108.1133 15.27581181 65900
Epoch: 2025-07-13T01:50Z
TLE epoch observation values (Epoch: 2025-07-13T01:50:36.273Z)
Latitude
-0°
Longitude
162.90884°
Altitude
483.011 km
Speed
7.626 km/s
True Right ascension
08h 07m 03s
True Declination
0° 00' 00"
Sunlit
Object was in daylight at epoch
Visualization orbit readout
Latitude
18.36548°
Longitude
-40.19933°
Altitude
482.399 km
Speed
7.628 km/s
Apparent Right ascension
16h 02m 07s
Apparent Declination
-13° 38' 20"
Sunlit
Object is in full shadow
Visualization observer readout
Local Sidereal Time
00:21:25
Azimuth
282.392° WNW
Elevation
-35.239°
Doppler factor
1
Orbital elements
Apogee altitude
485.601 km
Perigee altitude
484.381 km
Semi-major axis
6,863.128 km
Eccentricity
0.00009
Inclination
42.9998°
RAAN
121.7652°
Arg. of periapsis
251.9622°
True anomaly
Unknown
Mean anomaly
108.1133°
Eccentric anomaly
Unknown
Mean motion
3.81733 °/min
Orbital period
94.31 mins
BSTAR
0.000014085
Loading maneuver chart data...
Loading SW <> Apogee altitude chart data...
Loading historical data...
Loading historical data...
Loading historical data...
Loading historical data...
Loading historical data...
Loading historical data...
Loading historical data...

STARLINK-31862 Visibility forecast

Observer location: undefined°, undefined°

Span
Click to sort rows by Start time (UTC) header in descending order
Start Az.
Max El. time (UTC)
Max El. Az.
Max El.
End time (UTC)
End Az.
6 mins2025-07-13 22:27:25.610Z214.182° SW2025-07-13 22:30:25.610Z132.563° SE31.281°2025-07-13 22:33:25.610Z81.919° E
6 mins2025-07-14 00:06:25.610Z268.663° W2025-07-14 00:08:25.610Z306.715° NW40.66°2025-07-14 00:12:25.610Z70.57° E
6 mins2025-07-14 01:45:25.610Z291.723° WNW2025-07-14 01:48:25.610Z30.411° NE38.005°2025-07-14 01:51:25.610Z83.306° E
6 mins2025-07-14 03:24:25.610Z282.625° WNW2025-07-14 03:27:25.610Z169.296° S41.515°2025-07-14 03:30:25.610Z121.635° SE
|